Flag for Croatia Weather past 2 weeks in Zagreb, Croatia

Now
79 °F

Passing clouds.


Feels Like: 80 °F
Forecast: 60 / 82 °F
Wind: 3 mph from Southwest

Location: Zagreb / Pleso

Current Time: Jul 24, 2014 at 1:46:51 PM

Latest Report: Jul 24, 2014 at 1:00 PM


Visibility: N/A

Pressure: 29.86 "Hg

Humidity: 48%

Dew point: 57 °F

Location of ZagrebLocation

Historic Weather in Zagreb — Graph

°F

Zagreb temperature yesterday

Maximum temperature yesterday: 81 °F (at 2:00 PM)
Minimum temperature yesterday: 64 °F (at 4:00 AM)
Average temperature yesterday: 73 °F

Past Weeks' High & Low Weather Summary

 TemperatureHumidityPressure
High90 °F (Jul 20, 4:00 PM)100% (Jul 9, 11:00 PM)30.07 "Hg (Jul 9, 11:00 PM)
Low55 °F (Jul 10, 10:30 AM)35% (Jul 17, 4:30 PM)29.68 "Hg (Jul 9, 3:00 PM)
Average70 °F79%29.89 "Hg
* Reported Jul 9 1:00 PM — Jul 24 12:30 PM, Zagreb, Weather by CustomWeather, © 2014

Note: Actual official high and low records may vary slightly from our data, if they occured in-between our weather recording intervals... More about our weather records

Advertising

Zagreb weather history for previous 24 hours

 ConditionsComfort  
Time TempWeatherWind HumidityBarometerVisibility
12:30 PM
Jul 24
79 °FPassing clouds.3 mph48%29.86 "HgN/A
12:00 PM77 °FPassing clouds.2 mph51%29.86 "HgN/A
11:30 AM77 °FPassing clouds.3 mph54%29.86 "HgN/A
11:00 AM77 °FPassing clouds.2 mph51%29.86 "HgN/A
10:30 AM75 °FPassing clouds.2 mph50%29.86 "HgN/A
10:00 AM75 °FPassing clouds.2 mph50%29.86 "HgN/A
9:30 AM72 °FSunny.1 mph69%29.86 "Hg10 mi
9:00 AM70 °FSunny.1 mph73%29.86 "Hg10 mi
8:30 AM68 °FSunny.2 mph78%29.86 "Hg10 mi
7:30 AM64 °FPassing clouds.5 mph83%29.86 "HgN/A
7:00 AM61 °FSunny.6 mph94%29.86 "Hg10 mi
6:30 AM59 °FSunny.2 mph94%29.86 "Hg10 mi
6:00 AM57 °FClear.3 mph94%29.86 "Hg10 mi
5:30 AM57 °FPassing clouds.3 mph94%29.86 "HgN/A
5:00 AM59 °FPassing clouds.3 mph88%29.86 "HgN/A
4:30 AM59 °FClear.5 mph94%29.86 "Hg10 mi
4:00 AM59 °FClear.5 mph88%29.86 "Hg10 mi
3:00 AM61 °FClear.1 mph88%29.86 "Hg10 mi
2:30 AM61 °FPassing clouds.3 mph94%29.86 "HgN/A
2:00 AM61 °FPassing clouds.3 mph94%29.86 "HgN/A
1:30 AM61 °FPassing clouds.6 mph88%29.86 "HgN/A
1:00 AM63 °FClear.5 mph88%29.86 "Hg10 mi
12:30 AM64 °FPassing clouds.3 mph83%29.86 "HgN/A
12:00 AM64 °FPassing clouds.3 mph88%29.86 "HgN/A
11:30 PM
Jul 23
64 °FClear.2 mph88%29.86 "Hg10 mi
11:00 PM66 °FClear.5 mph83%29.86 "Hg10 mi
10:30 PM68 °FPassing clouds.2 mph78%29.86 "HgN/A
10:00 PM70 °FPassing clouds.5 mph78%29.86 "HgN/A
9:00 PM73 °FScattered showers. Passing clouds.7 mph69%29.83 "HgN/A
8:30 PM75 °FPassing clouds.2 mph65%29.80 "HgN/A
8:00 PM79 °FPassing clouds.3 mph54%29.80 "HgN/A
7:30 PM79 °FPassing clouds.6 mph54%29.80 "HgN/A
7:00 PM81 °FPassing clouds.6 mph51%29.80 "HgN/A
6:30 PM81 °FPassing clouds.9 mph48%29.77 "HgN/A
6:00 PM81 °FPassing clouds.12 mph48%29.77 "HgN/A
5:30 PM81 °FPassing clouds.12 mph48%29.77 "HgN/A
5:00 PM81 °FPassing clouds.10 mph48%29.77 "HgN/A
4:30 PM81 °FPassing clouds.9 mph48%29.80 "HgN/A
4:00 PM79 °FPassing clouds.9 mph54%29.80 "HgN/A
3:00 PM81 °FPassing clouds.8 mph51%29.80 "HgN/A
2:30 PM77 °FPassing clouds.10 mph61%29.80 "HgN/A
2:00 PM81 °FScattered clouds.9 mph51%29.80 "HgN/A
1:30 PM79 °FPassing clouds.12 mph58%29.80 "HgN/A
1:00 PM79 °FScattered clouds.10 mph61%29.83 "HgN/A
Weather by CustomWeather, © 2014

See weather overviewHow to use our weather pages